User: anonymous   Login
Location: *
(47.6569°N, 7.4256°E)
Time: 09:04:45
(UTC+00:00)
Language:

Okean 2 Rocket - Orbit

View from above orbital plane
View from above orbital plane
View from above satellite
View from above satellite

Ground track
Ground track

The orbit data is extracted from the following two-line orbital elements,

1 20511U 90018B   20055.55330105 +.00000083 +00000-0 +77750-5 0  9993
2 20511 082.5228 119.2481 0018722 128.5808 348.8992 14.80032708596260
Epoch (UTC): 24 February 2020 13:16:45
Eccentricity: 0.0018722
inclination: 82.5228°
perigee height: 616 km
apogee height: 642 km
right ascension of ascending node: 119.2481°
argument of perigee: 128.5808°
revolutions per day: 14.80032708
mean anomaly at epoch: 348.8992°
orbit number at epoch: 59626

The dashed part of the orbit path shows where the satellite is in the earth's shadow,  

DLR